"Pseudo-MPEC" for A11BRHV

Created 2026 May 8 1:35:02 UT using Find_Orb

Click here for an explanation of pseudo-MPECs

 
 Astrometry: 
     A11BRHV*0C2026 05 02.31051708 23 44.726+24 36 03.96   ~530K 15.64oVNEOCPT05
     A11BRHV 0C2026 05 02.31142108 23 53.278+24 35 16.12   ~530K 15.52oVNEOCPT05
     A11BRHV 0C2026 05 02.33230308 27 10.524+24 16 45.62   ~530K 14.81oVNEOCPT05
     A11BRHV 0C2026 05 02.33501308 27 36.310+24 14 19.68   ~530K 14.99oVNEOCPT05

Station data:
(T05) ATLAS-HKO, Haleakala  (N20.707551 W156.257010)  US/Hawaii.  Observers
   L. Denneau, R. Siverd, J. Tonry, H. Weiland. Measurers L. Denneau, N.
   Erasmus, A. Fitzsimmons, J. Robinson, R. Siverd, J. Tonry, H. Weiland.
   0.5-m f/2.0 Schmidt + CCD.

Orbital elements:  A11BRHV
   Perihelion 2026 Mar 28.874533 +/- 16.1 TT = 20:59:19.6 (JD 2461128.374533)
Epoch 2026 May  2.0 TT = JDT 2461162.5   Earth MOID: 0.0011   Ju: 0.0171
M   0.159738989 +/- 41              Ve: 0.0496   Ma: 0.0548   Sa: 0.0437
n   0.004680932 +/-                 Peri.  120.266633 +/- 39     AutoNEOCP
a  35.39276507 +/-                  Node    41.510371 +/- 1.2
e   0.97837655 +/- 0.228            Incl.    5.629396 +/- 5.4
P 210.55800                H 20.96  G  0.15   U 11.3  SR
q 0.765313423 +/- 0.276    Q 70.02021672 +/- 16.3         (J2000 ecliptic)
From 4 observations 2026 May 2 (35.3 min); mean residual 0".30
Residuals in arcseconds: 
260502 T05  .41-  .28+    260502 T05  .13-  .32-    
260502 T05  .44+  .25-    260502 T05  .10+  .30+    

Ephemerides (geocentric):
Date (UTC) HH   RA             Dec           delta  r     elong  mag " sig PA
---- --------  ------------   ------------  ------ ------ -----  --- --------
2026 05 08 02  14 43 14.200   -25 10 32.27  .06664 1.0750 171.0 15.8  23d  62
2026 05 08 03  14 43 38.659   -25 12 36.44  .06716 1.0755 171.0 15.8  23d  62
2026 05 08 04  14 44 02.761   -25 14 38.44  .06767 1.0761 171.0 15.9  23d  62
2026 05 08 05  14 44 26.514   -25 16 38.32  .06818 1.0766 171.0 15.9  23d  62
2026 05 08 06  14 44 49.926   -25 18 36.14  .06870 1.0771 171.0 15.9  23d  62
2026 05 08 07  14 45 13.003   -25 20 31.94  .06921 1.0776 171.0 15.9  23d  62
2026 05 08 08  14 45 35.752   -25 22 25.77  .06973 1.0781 171.0 15.9  23d  63
2026 05 08 09  14 45 58.181   -25 24 17.68  .07024 1.0787 171.0 15.9  23d  63
2026 05 08 10  14 46 20.295   -25 26 07.72  .07075 1.0792 171.0 16.0  23d  63
2026 05 08 11  14 46 42.102   -25 27 55.92  .07127 1.0797 171.0 16.0  23d  63
2026 05 08 12  14 47 03.607   -25 29 42.33  .07178 1.0802 171.0 16.0  23d  63
2026 05 08 13  14 47 24.816   -25 31 27.00  .07230 1.0807 171.0 16.0  23d  63
2026 05 08 14  14 47 45.736   -25 33 09.95  .07281 1.0813 171.0 16.0  23d  63
2026 05 08 15  14 48 06.372   -25 34 51.23  .07333 1.0818 171.0 16.0  23d  63
2026 05 08 16  14 48 26.730   -25 36 30.88  .07385 1.0823 171.0 16.1  23d  63
2026 05 08 17  14 48 46.815   -25 38 08.93  .07436 1.0828 171.0 16.1  23d  63
2026 05 08 18  14 49 06.632   -25 39 45.43  .07488 1.0833 171.0 16.1  23d  63
2026 05 08 19  14 49 26.188   -25 41 20.39  .07540 1.0839 171.0 16.1  23d  63
2026 05 08 20  14 49 45.486   -25 42 53.86  .07591 1.0844 171.0 16.1  23d  63
2026 05 08 21  14 50 04.531   -25 44 25.87  .07643 1.0849 171.0 16.1  23d  63
2026 05 08 22  14 50 23.330   -25 45 56.45  .07695 1.0854 171.0 16.2  23d  63
2026 05 08 23  14 50 41.885   -25 47 25.63  .07746 1.0859 171.0 16.2  23d  63
2026 05 09 00  14 51 00.202   -25 48 53.45  .07798 1.0865 171.0 16.2  23d  63
2026 05 09 01  14 51 18.286   -25 50 19.92  .07850 1.0870 171.0 16.2  23d  63
2026 05 09 02  14 51 36.140   -25 51 45.08  .07902 1.0875 171.0 16.2  23d  63
2026 05 09 03  14 51 53.769   -25 53 08.95  .07953 1.0880 171.0 16.2  23d  63
2026 05 09 04  14 52 11.177   -25 54 31.57  .08005 1.0885 171.0 16.2  23d  63
2026 05 09 05  14 52 28.368   -25 55 52.96  .08057 1.0891 171.0 16.3  23d  63
2026 05 09 06  14 52 45.346   -25 57 13.14  .08109 1.0896 171.0 16.3  23d  63
2026 05 09 07  14 53 02.115   -25 58 32.14  .08161 1.0901 171.0 16.3  23d  63
2026 05 09 08  14 53 18.679   -25 59 49.98  .08213 1.0906 171.0 16.3  23d  63
2026 05 09 09  14 53 35.040   -26 01 06.68  .08265 1.0912 171.0 16.3  23d  63
2026 05 09 10  14 53 51.204   -26 02 22.27  .08317 1.0917 171.0 16.3  23d  63
2026 05 09 11  14 54 07.173   -26 03 36.77  .08369 1.0922 171.0 16.3  23d  63
2026 05 09 12  14 54 22.951   -26 04 50.21  .08421 1.0927 171.0 16.4  23d  63
2026 05 09 13  14 54 38.541   -26 06 02.59  .08473 1.0933 171.0 16.4  23d  63
2026 05 09 14  14 54 53.946   -26 07 13.95  .08525 1.0938 171.0 16.4  23d  63
2026 05 09 15  14 55 09.170   -26 08 24.30  .08577 1.0943 171.0 16.4  23d  63
2026 05 09 16  14 55 24.215   -26 09 33.66  .08629 1.0948 170.9 16.4  23d  63
2026 05 09 17  14 55 39.086   -26 10 42.06  .08681 1.0954 170.9 16.4  23d  63
2026 05 09 18  14 55 53.784   -26 11 49.50  .08733 1.0959 170.9 16.4  23d  63
2026 05 09 19  14 56 08.313   -26 12 56.01  .08785 1.0964 170.9 16.5  23d  63
2026 05 09 20  14 56 22.675   -26 14 01.61  .08837 1.0969 170.9 16.5  23d  63
2026 05 09 21  14 56 36.874   -26 15 06.30  .08889 1.0975 170.9 16.5  23d  63
2026 05 09 22  14 56 50.911   -26 16 10.12  .08941 1.0980 170.9 16.5  23d  63
2026 05 09 23  14 57 04.791   -26 17 13.07  .08993 1.0985 170.9 16.5  23d  63
2026 05 10 00  14 57 18.514   -26 18 15.17  .09045 1.0990 170.9 16.5  23d  63
2026 05 10 01  14 57 32.085   -26 19 16.43  .09098 1.0996 170.9 16.5  23d  63